Theta_e
311 309 309 309 308 307 306 306 306 306 305 304 304 304 302 301 300 300 298 299 299 299 299 299 299 299 298 298 298 298 297 297 298 296 296 301 305 308 307 304 305 305 305
309 307 307 307 306 306 306 305 305 305 305 305 305 306 302 301 300 300 299 298 298 298 297 298 297 298 297 297 297 296 294 295 295 290 292 294 301 305 300 305 305 301 301
307 305 305 306 306 305 305 304 305 304 304 304 302 301 300 299 298 298 298 297 296 296 296 296 297 297 297 296 296 295 293 291 294 293 288 286 289 289 301 302 303 298 300
309 306 305 305 305 305 306 306 304 303 303 303 301 300 300 298 297 297 296 297 296 296 295 295 296 296 296 295 295 294 292 291 288 290 292 290 289 285 286 298 299 297 297
308 306 305 305 306 306 305 305 304 302 301 301 300 300 297 297 296 296 294 297 297 295 293 294 295 295 295 294 294 292 291 290 288 287 287 287 288 289 288 286 292 296 296
306 306 307 306 305 305 305 304 303 301 300 299 298 298 297 295 294 294 295 296 297 296 292 292 293 294 294 293 293 292 291 290 288 287 286 286 285 285 286 285 287 289 295
305 305 303 303 303 303 303 302 301 298 298 297 297 296 295 294 293 293 294 293 295 293 290 291 291 292 292 292 293 292 292 290 287 286 286 287 287 287 287 286 286 288 294
304 304 303 303 302 301 301 300 299 296 296 296 295 295 294 294 294 293 293 292 292 291 290 290 290 290 291 291 292 292 291 290 287 286 287 287 287 288 288 287 286 285 291
303 303 303 302 301 300 300 298 297 297 296 295 294 293 293 292 292 291 292 292 290 288 289 288 288 289 290 290 290 291 289 290 288 287 286 287 287 288 289 289 289 287 285
302 302 302 302 301 300 299 300 299 297 296 295 293 292 292 292 291 291 290 289 289 288 288 288 288 288 288 288 289 289 288 288 289 287 286 286 287 288 288 289 290 290 289
302 302 302 302 300 300 299 299 298 296 294 292 291 291 290 290 290 289 289 289 288 288 287 287 286 286 286 287 287 287 286 286 286 287 284 285 286 286 287 287 289 288 288
303 302 301 301 300 299 298 296 296 293 292 291 290 290 289 289 288 287 288 288 288 287 286 286 286 285 285 286 285 284 285 284 284 284 284 283 285 285 286 286 286 286 287
301 301 300 297 290 294 290 292 291 290 291 290 290 289 288 287 286 286 287 288 287 287 287 286 285 284 284 284 284 284 283 283 283 283 283 282 282 282 284 284 284 285 285
299 299 298 296 294 293 288 287 289 288 288 288 288 287 286 284 284 286 287 287 288 287 287 286 285 284 284 283 284 283 284 283 282 282 282 281 281 280 282 283 283 284 285
297 297 297 296 295 293 290 289 289 285 286 285 285 284 284 284 284 285 286 287 287 286 286 286 286 286 284 282 283 283 283 282 282 282 282 281 280 280 281 281 281 283 283
296 296 296 295 294 293 292 291 289 285 286 284 283 283 283 282 283 285 286 286 285 284 284 285 284 284 283 279 279 282 282 281 281 281 281 281 280 280 278 279 279 279 280
297 296 296 294 295 294 293 291 289 287 286 283 282 281 281 280 282 284 284 282 282 283 282 282 283 282 282 279 279 280 282 281 280 280 280 279 278 279 279 277 278 278 278
299 298 298 297 296 295 292 291 289 287 286 284 282 281 279 279 280 281 280 281 282 282 282 282 283 282 281 278 278 279 282 281 280 280 279 278 277 276 277 277 276 276 276
302 303 301 298 296 293 292 290 288 287 286 284 283 282 278 278 278 278 280 282 282 282 282 282 282 282 281 278 278 280 282 280 280 280 279 278 277 275 276 275 274 275 275
302 299 298 297 295 293 292 289 288 287 286 286 285 284 282 280 279 280 281 282 283 282 283 281 282 280 280 278 278 280 282 280 281 281 279 276 276 275 275 276 275 273 273
289 295 293 291 288 290 290 286 286 285 286 286 286 284 283 282 282 282 283 283 283 282 282 281 281 281 282 280 277 277 281 281 280 280 279 278 275 275 274 274 274 272 276
287 287 286 285 286 287 286 284 284 284 284 284 283 283 283 283 283 282 283 283 283 281 281 282 282 283 282 280 278 277 277 277 279 278 278 276 274 274 273 274 273 273 276
289 287 284 283 284 285 285 283 283 282 283 283 282 282 283 283 283 282 282 282 282 282 282 281 281 281 281 282 278 276 275 275 278 277 273 272 272 272 274 272 272 274 276
291 288 285 283 282 284 285 285 281 282 282 282 282 282 282 283 282 283 283 283 282 282 282 281 281 281 281 281 281 279 277 274 275 273 275 272 272 271 273 275 275 275 274
291 290 289 287 284 285 284 282 282 282 282 282 282 283 283 283 281 283 282 282 284 283 282 282 282 281 280 281 279 279 278 278 275 275 276 277 277 276 276 275 274 274 274
292 292 291 290 287 287 285 284 284 284 283 282 282 283 284 284 284 283 281 280 282 281 280 280 282 281 279 276 275 274 273 272 271 275 276 275 275 275 274 274 274 273 271
Wind_Speed
20 18 17 16 16 15 14 14 13 12 9 7 6 5 4 4 4 4 5 5 6 7 7 6 7 7 7 9 10 9 12 10 11 12 12 10 7 6 7 13 5 11 13
22 21 20 18 17 17 15 14 13 12 8 5 4 3 5 3 3 3 4 5 6 7 6 7 6 7 6 8 10 11 10 9 9 9 10 8 8 1 16 7 5 11 11
26 23 23 21 19 18 17 14 13 12 8 7 6 6 5 5 5 4 3 5 5 6 6 6 6 7 6 7 9 9 10 9 9 10 4 5 6 14 7 10 6 12 11
25 24 23 22 21 18 16 15 13 12 10 9 7 7 4 4 4 3 3 2 4 4 5 6 6 7 6 7 7 7 8 8 9 8 4 8 10 5 9 8 15 9 12
28 28 27 24 21 19 16 14 14 12 10 8 6 6 5 5 4 3 3 2 3 3 6 6 7 7 6 7 8 8 9 7 8 7 8 8 8 12 7 12 12 13 9
26 26 24 23 21 18 17 15 15 12 10 8 7 6 7 6 4 4 4 2 2 2 6 7 7 6 6 7 7 8 8 8 8 7 8 8 6 9 8 9 12 14 8
25 25 27 25 23 22 19 16 16 14 12 10 8 7 6 5 5 5 3 3 2 3 7 7 6 6 7 7 7 7 8 8 8 10 8 8 8 9 9 9 10 9 11
23 27 28 25 24 23 22 18 17 15 13 11 9 7 7 4 4 3 3 4 3 5 7 6 6 6 7 7 7 6 7 8 8 11 10 8 8 8 8 7 7 8 6
23 25 25 23 24 23 22 19 18 15 14 12 9 8 6 6 5 5 4 4 5 5 6 5 6 6 7 8 7 6 8 8 8 9 11 10 8 8 7 7 6 4 4
20 22 23 24 22 23 21 19 18 16 14 13 10 8 7 6 5 5 6 6 7 6 5 6 6 7 7 8 8 7 8 9 8 8 12 12 9 8 7 7 7 5 5
18 20 21 21 21 20 20 19 17 16 14 12 10 9 8 7 6 6 6 6 6 5 6 6 6 7 7 7 7 8 8 9 10 11 12 14 14 9 8 8 7 6 4
15 17 12 17 18 17 17 15 16 15 14 12 11 10 9 8 7 6 7 6 6 5 6 5 6 7 7 7 7 8 8 9 11 12 13 14 12 13 11 8 10 8 6
15 16 17 14 11 15 12 14 12 12 12 13 12 11 9 8 7 7 7 7 5 5 5 5 6 7 7 7 7 7 8 8 10 11 13 14 15 15 12 11 10 8 7
14 16 18 19 17 16 13 13 14 11 9 10 11 10 9 9 8 7 7 7 6 5 4 5 6 5 7 7 7 6 7 7 9 9 11 13 15 17 15 12 11 10 8
16 16 17 18 19 18 16 15 14 12 12 10 9 9 9 9 9 8 7 7 6 5 5 5 5 7 8 8 7 7 7 8 8 9 10 11 14 21 21 12 14 12 10
16 17 18 19 19 19 18 17 16 14 13 10 10 11 10 8 8 8 8 7 7 6 4 6 6 7 7 10 10 8 8 9 9 9 10 10 13 12 19 22 25 22 13
18 20 21 20 19 19 19 19 17 16 15 12 11 11 11 10 9 9 8 8 7 7 7 7 6 7 7 8 9 8 8 9 10 10 10 10 10 12 11 15 18 23 23
18 18 17 18 18 18 18 17 18 17 16 15 13 12 11 10 10 10 10 9 8 8 7 6 5 7 6 6 7 9 8 8 10 10 10 10 11 13 11 11 12 14 16
16 16 17 18 19 20 20 19 18 17 17 16 16 14 12 12 11 11 11 9 8 7 7 6 5 6 6 6 4 4 6 8 9 11 12 10 11 14 12 9 11 11 11
8 12 14 18 18 18 20 18 19 19 18 17 16 15 15 14 13 12 11 9 8 7 6 6 5 4 7 5 4 2 4 5 6 7 9 16 13 16 15 10 9 10 10
7 12 10 12 13 14 17 15 15 14 12 13 15 15 15 14 14 13 10 10 9 9 7 7 6 4 5 7 6 5 3 3 4 5 6 8 14 15 16 14 10 8 6
11 11 12 11 11 12 14 15 14 12 13 12 13 12 11 10 11 12 10 10 9 9 8 7 7 6 6 7 8 8 7 3 5 5 5 6 11 14 14 11 12 10 7
12 11 11 13 10 11 12 15 13 15 14 14 13 13 12 10 10 12 11 9 8 7 7 6 6 5 4 6 9 9 7 5 5 6 8 7 6 5 8 13 11 9 6
12 13 14 13 14 11 11 11 15 14 15 15 14 13 12 12 11 9 9 8 8 7 6 6 6 6 6 5 5 5 6 6 6 6 4 4 4 5 4 5 7 7 7
12 12 12 13 14 14 12 13 14 16 16 14 13 14 12 13 11 9 9 8 7 7 7 6 6 6 7 5 4 4 4 3 4 3 2 2 2 3 4 5 6 6 6
12 12 13 13 15 15 15 15 17 18 16 15 13 12 11 11 11 10 8 1 5 7 4 4 5 4 8 13 10 10 9 8 5 3 2 3 2 3 4 4 4 5 6
Wind_Direction
185 175 179 171 171 167 168 166 158 153 156 159 158 152 138 124 105 83 56 38 26 18 16 8 4 354 348 347 344 337 336 338 351 318 329 297 291 291 336 304 300 313 333
185 183 182 178 180 172 174 170 166 165 174 160 145 127 141 116 101 103 82 42 27 23 15 7 359 355 340 350 351 350 347 334 346 334 310 328 311 335 318 313 337 342 331
190 185 185 184 181 178 175 174 167 164 163 145 142 133 132 148 176 143 100 58 31 26 14 5 358 356 352 353 349 355 346 339 337 354 312 332 330 333 288 307 13 359 339
195 190 187 186 186 179 175 173 162 159 158 168 164 187 211 160 104 110 77 77 35 39 15 8 10 7 354 354 346 1 341 348 336 335 341 312 292 303 313 333 322 8 336
195 193 190 185 182 175 173 169 164 161 155 156 173 173 150 121 120 119 150 163 120 55 27 16 14 12 354 350 347 353 357 345 331 330 322 313 302 272 278 304 328 325 331
196 194 186 180 180 171 173 167 166 157 150 155 166 161 141 134 150 165 178 141 127 79 40 24 19 4 350 349 356 349 351 351 340 334 322 316 310 303 302 305 313 313 325
197 190 183 181 177 176 170 169 169 161 156 163 157 137 136 145 162 182 146 138 105 59 39 21 12 6 354 347 352 346 351 355 347 339 328 317 305 304 299 299 305 315 318
191 190 184 180 176 172 173 170 168 159 162 157 144 145 152 165 165 148 126 91 70 53 34 19 12 6 357 357 352 352 357 358 349 344 338 325 322 317 307 301 304 313 310
189 189 182 176 173 174 171 169 167 164 163 147 149 156 161 183 147 131 111 95 74 59 39 22 16 17 9 6 350 1 359 352 356 354 344 345 337 321 316 309 300 296 309
183 185 183 181 172 172 166 168 166 167 156 153 151 164 162 158 142 121 104 96 79 61 41 29 27 26 21 12 359 2 9 357 1 3 354 356 348 344 343 326 314 314 290
181 182 181 182 173 166 167 164 165 161 155 155 156 163 153 154 140 127 116 104 100 73 55 38 31 36 28 16 13 12 10 6 4 11 5 4 358 358 360 343 341 336 320
172 172 166 169 171 161 161 159 159 159 158 155 159 163 156 155 144 131 117 116 107 90 67 49 43 42 33 25 22 20 17 16 14 12 14 12 1 6 15 360 354 352 335
166 167 168 160 149 151 146 157 153 151 155 155 160 164 158 153 148 134 132 127 126 119 106 74 56 46 37 34 28 25 28 24 24 20 19 16 15 12 14 17 6 6 10
164 166 176 173 165 163 155 149 148 143 146 142 161 157 159 151 141 144 144 141 139 144 132 104 94 74 51 39 32 29 37 40 40 25 35 25 27 23 15 23 21 17 30
175 176 177 174 171 168 165 158 151 150 144 147 154 153 154 142 149 149 149 135 138 145 127 116 100 80 64 37 21 40 37 44 41 43 38 38 38 35 36 31 25 28 40
181 177 176 175 175 174 172 169 163 157 151 153 159 153 150 151 145 153 143 141 143 116 91 97 88 71 64 52 44 32 55 37 47 38 35 40 30 55 45 42 47 41 35
177 180 182 178 177 177 174 174 162 159 163 161 156 157 153 153 152 154 135 145 142 129 129 112 102 91 83 68 63 55 62 55 50 42 33 38 35 26 41 52 49 52 49
190 186 180 178 176 171 170 164 163 165 167 165 160 160 154 153 153 146 155 154 145 145 135 122 119 112 100 94 79 70 69 65 60 51 45 44 38 36 31 49 57 55 50
197 189 179 172 166 166 165 165 166 169 170 169 169 163 157 152 155 156 158 153 148 141 135 131 128 120 115 114 95 90 92 75 66 59 50 45 45 38 39 54 55 57 53
155 147 147 153 162 167 166 166 169 172 176 171 168 162 163 161 158 161 159 153 149 147 150 141 131 114 118 106 98 354 95 88 90 75 69 52 47 44 42 43 52 55 44
109 130 135 151 149 155 160 163 164 169 158 158 159 161 164 163 163 160 157 156 163 153 153 152 150 136 129 111 87 60 79 77 79 69 68 59 48 46 46 49 47 44 23
130 126 125 129 139 147 149 157 159 145 143 147 147 153 160 157 162 158 159 166 160 162 176 168 169 157 146 129 109 83 69 69 92 78 74 71 57 59 50 51 45 38 41
139 128 123 128 137 147 156 153 146 145 146 144 149 154 155 158 156 161 165 170 172 171 177 175 173 155 149 135 121 111 99 82 91 81 82 86 79 62 69 52 45 40 41
140 136 136 142 149 154 152 144 147 145 146 149 155 158 164 161 163 172 176 179 183 185 178 174 173 163 170 164 161 142 138 122 117 136 97 79 90 82 78 51 52 50 41
140 150 151 152 153 156 146 144 148 148 153 154 159 165 172 172 173 183 186 191 195 196 184 183 177 179 184 171 158 169 170 156 101 149 162 125 79 65 55 61 45 41 37
150 152 149 149 153 158 156 157 161 162 159 160 167 171 172 176 176 177 171 97 188 174 117 131 178 150 113 130 141 139 129 127 159 193 139 103 71 54 52 48 55 46 42